CZ-6A R/B

Satellite information

Favourite Embed

Satellite Type and Status

ROCKET BODYIN ORBIT

Key statistics

Satellite CZ-6A R/B at a glance.

Uptime

192

Days in orbit

Revolutions

≈ 13.9

Per day

Orbit

LEO

Low Earth Orbit

Inclination

86.5

Latest

Satellite identification and parameters

Extended collection of information and parameters for CZ-6A R/B.

Object identification

Identified? True

Debris? False

Object name: CZ-6A R/B

International designator: 2025-121F

Object number (NORAD): 64288

Object ID (CCSDS): 64288

Country: PEOPLES REPUBLIC OF CHINA (PRC)

Current information (Y/N): Y

RCS size: LARGE

Orbital parameters

Period: 103.296 minutes

Inclination: 86.5068 deg

SMA: 7292.623 km

Apoapsis: 987.771 km

Periapsis: 841.206 km

RAAN: 70.268 deg

Eccentricy: 0.01004887

Argument of periapsis: 251.2815 deg

Mean anomaly: 107.7432 deg

Mean motion: 13.94045959 rev/day

Mean motion (dot): 0.00000121 rev/day2

B* drag term: 0.000075485638 1/REarth

Two-line elements (TLE)

Creation date: Dec. 14, 2025, 3:07 a.m.

Reference frame: TEME

Reference center: EARTH

Epoch: Dec. 13, 2025, 3:03 p.m. UTC

TLE line 0: 0 CZ-6A R/B

TLE line 1: 1 64288U 25121F 25347.62723695 .00000121 00000-0 75486-4 0 9998

TLE line 2: 2 64288 86.5068 70.2680 0100489 251.2815 107.7432 13.94045959 26586

Live tracking on map

Real-time ground track for satellite CZ-6A R/B.

In-orbit conjunctions

A list of the most updated potential collisions computed for object CZ-6A R/B.

Target Orbit TCA Probability of collision Miss distance Type
CZ-6A DEB LEO 2025-12-08 06:16:04 0.0001066555 267.0 (m) DEBRIS

Associated space launch

A batch of 5 Low Earth Orbit communication satellites for the Chinese state owned SatNet constellation operated by the China Satellite Network Group. The constellation will eventually consists of 13000 satellites.

CZ-6A R/B was lifted into orbit during the mission ‘Long March 6A | SatNet LEO Group 04’, on board a Long March 6A space rocket.

The launch took place on June 5, 2025, 8:45 p.m. from Launch Complex 9A.

For more information about the launch, click the button.

Launch to space Long March 6A | SatNet LEO Group 04
Long March 6A | SatNet LEO Group 04

Agency: N/A

Status: Launch Successful

Launch date: June 5, 2025, 8:45 p.m. UTC

Rocket: Long March 6A

Launch pad: Launch Complex 9A

Location: Taiyuan Satellite Launch Center, People's Republic of China

...

Latest news about this satellite

News about space launch
China launches fourth group of Guowang megaconstellation satellites

China launched a fourth group of satellites for its Guowang low Earth orbit megaconstellation Thursday, but released few details about the payload or objectives. The post China launches fourth group of Guowang megaconstellation satellites appeared first ...


Newsletter sign-up

Weekly statistics, charts and insights to help you stay on top of the space industry.